DLH2FS EDDF-EDDS

Flight info

Callsign DLH2FS
Flight time 0h 25m
Altitude 16000
Route ANEKI2L/18 ANEKI Y163 NEKLO Y171 INKAM N850 KRH T128 BADSO BADSO2A
Aircraft A320/M-SDE3FGHIRWY/LB1

Departure

Time 2026-05-07 14:46
Airport Frankfurt Main Airport (EDDF)

Arrival

Time 2026-05-07 15:12
Airport Stuttgart Airport (EDDS)
Time Latitude Longitude Altitude Speed Heading
2026-05-07 14:17 50.04655 8.56810 359 ft 0 kts 295°
2026-05-07 14:36 50.04654 8.56813 356 ft 2 kts 295°
2026-05-07 14:36 50.04643 8.56850 360 ft 4 kts 295°
2026-05-07 14:37 50.04634 8.56883 359 ft 4 kts 286°
2026-05-07 14:37 50.04654 8.56938 362 ft 4 kts 196°
2026-05-07 14:37 50.04670 8.56946 357 ft 0 kts 205°
2026-05-07 14:38 50.04650 8.56932 364 ft 3 kts 204°
2026-05-07 14:38 50.04648 8.56930 356 ft 0 kts 204°
2026-05-07 14:40 50.04633 8.56921 360 ft 4 kts 198°
2026-05-07 14:40 50.04593 8.56906 356 ft 9 kts 192°
2026-05-07 14:40 50.04550 8.56892 362 ft 7 kts 192°
2026-05-07 14:40 50.04488 8.56869 359 ft 10 kts 195°
2026-05-07 14:41 50.04434 8.56760 361 ft 17 kts 252°
2026-05-07 14:41 50.04390 8.56572 360 ft 20 kts 249°
2026-05-07 14:41 50.04340 8.56364 361 ft 21 kts 249°
2026-05-07 14:41 50.04286 8.56140 356 ft 23 kts 249°
2026-05-07 14:42 50.04230 8.55902 355 ft 24 kts 250°
2026-05-07 14:42 50.04170 8.55652 352 ft 25 kts 250°
2026-05-07 14:42 50.04108 8.55393 360 ft 26 kts 250°
2026-05-07 14:42 50.04047 8.55141 359 ft 25 kts 249°
2026-05-07 14:43 50.03987 8.54880 357 ft 26 kts 251°
2026-05-07 14:43 50.03921 8.54608 354 ft 27 kts 250°
2026-05-07 14:43 50.03850 8.54346 353 ft 24 kts 237°
2026-05-07 14:43 50.03773 8.54112 352 ft 25 kts 250°
2026-05-07 14:44 50.03712 8.53854 348 ft 26 kts 249°
2026-05-07 14:44 50.03646 8.53588 347 ft 27 kts 248°
2026-05-07 14:44 50.03579 8.53315 338 ft 27 kts 249°
2026-05-07 14:44 50.03512 8.53034 335 ft 28 kts 250°
2026-05-07 14:45 50.03450 8.52799 335 ft 20 kts 247°
2026-05-07 14:45 50.03411 8.52635 333 ft 9 kts 249°
2026-05-07 14:45 50.03357 8.52593 335 ft 9 kts 184°
2026-05-07 14:45 50.03286 8.52596 334 ft 18 kts 180°
2026-05-07 14:46 50.02918 8.52597 333 ft 89 kts 180°
2026-05-07 14:46 50.02097 8.52605 333 ft 144 kts 179°
2026-05-07 14:46 50.01000 8.52612 731 ft 156 kts 181°
2026-05-07 14:46 49.99912 8.52652 1440 ft 158 kts 178°
2026-05-07 14:47 49.98787 8.52726 2031 ft 170 kts 178°
2026-05-07 14:47 49.97525 8.52815 2470 ft 193 kts 178°
2026-05-07 14:47 49.96106 8.52913 2844 ft 216 kts 178°
2026-05-07 14:47 49.94546 8.53022 3327 ft 233 kts 178°
2026-05-07 14:48 49.92914 8.53137 4172 ft 236 kts 179°
2026-05-07 14:48 49.91288 8.53249 5081 ft 238 kts 179°
2026-05-07 14:48 49.89604 8.53366 5981 ft 241 kts 179°
2026-05-07 14:48 49.87917 8.53481 6830 ft 244 kts 179°
2026-05-07 14:49 49.86230 8.53596 7636 ft 247 kts 179°
2026-05-07 14:49 49.84496 8.53715 8459 ft 251 kts 179°
2026-05-07 14:49 49.82740 8.53834 9306 ft 254 kts 179°
2026-05-07 14:49 49.80959 8.53954 10157 ft 258 kts 179°
2026-05-07 14:50 49.79155 8.54076 10928 ft 261 kts 179°
2026-05-07 14:50 49.77333 8.54041 11673 ft 264 kts 187°
2026-05-07 14:50 49.75490 8.53789 12434 ft 268 kts 186°
2026-05-07 14:50 49.73622 8.53539 13192 ft 271 kts 186°
2026-05-07 14:51 49.71731 8.53290 13936 ft 275 kts 186°
2026-05-07 14:51 49.69835 8.53043 14548 ft 281 kts 186°
2026-05-07 14:51 49.67838 8.52778 14953 ft 296 kts 186°
2026-05-07 14:51 49.65729 8.52495 15310 ft 312 kts 186°
2026-05-07 14:52 49.63511 8.52197 15660 ft 328 kts 186°
2026-05-07 14:52 49.61188 8.51886 15983 ft 344 kts 186°
2026-05-07 14:52 49.58733 8.51561 16052 ft 366 kts 186°
2026-05-07 14:52 49.56142 8.51223 16057 ft 378 kts 186°
2026-05-07 14:53 49.53507 8.50885 16058 ft 381 kts 186°
2026-05-07 14:53 49.50862 8.50547 16057 ft 382 kts 186°
2026-05-07 14:53 49.48250 8.50209 16057 ft 382 kts 186°
2026-05-07 14:53 49.45603 8.49862 16057 ft 382 kts 186°
2026-05-07 14:54 49.42956 8.49516 16051 ft 381 kts 186°
2026-05-07 14:54 49.40314 8.49169 16056 ft 381 kts 186°
2026-05-07 14:54 49.37679 8.48843 16059 ft 381 kts 184°
2026-05-07 14:54 49.35033 8.49138 16060 ft 383 kts 170°
2026-05-07 14:55 49.32495 8.50383 16057 ft 385 kts 156°
2026-05-07 14:55 49.30237 8.52485 16056 ft 386 kts 142°
2026-05-07 14:55 49.28332 8.55386 16056 ft 388 kts 128°
2026-05-07 14:55 49.26765 8.58735 16050 ft 388 kts 126°
2026-05-07 14:56 49.25203 8.62113 16051 ft 388 kts 126°
2026-05-07 14:56 49.23640 8.65480 16049 ft 388 kts 126°
2026-05-07 14:56 49.22076 8.68837 16049 ft 388 kts 126°
2026-05-07 14:56 49.20506 8.72201 16051 ft 388 kts 126°
2026-05-07 14:57 49.18930 8.75559 16042 ft 388 kts 126°
2026-05-07 14:57 49.17354 8.78915 16038 ft 389 kts 126°
2026-05-07 14:57 49.15784 8.82260 16036 ft 385 kts 126°
2026-05-07 14:57 49.14258 8.85523 15950 ft 371 kts 126°
2026-05-07 14:58 49.12796 8.88648 15637 ft 363 kts 126°
2026-05-07 14:58 49.11333 8.91760 15152 ft 358 kts 126°
2026-05-07 14:58 49.09883 8.94838 14554 ft 356 kts 126°
2026-05-07 14:58 49.08447 8.97883 13947 ft 353 kts 125°
2026-05-07 14:59 49.07015 9.00917 13280 ft 351 kts 126°
2026-05-07 14:59 49.05600 9.03912 12684 ft 346 kts 126°
2026-05-07 14:59 49.04197 9.06875 12054 ft 343 kts 126°
2026-05-07 14:59 49.02808 9.09800 11434 ft 340 kts 127°
2026-05-07 15:00 49.01425 9.12709 10858 ft 338 kts 127°
2026-05-07 15:00 49.00071 9.15564 10728 ft 326 kts 127°
2026-05-07 15:00 48.98786 9.18279 10601 ft 315 kts 127°
2026-05-07 15:00 48.97541 9.20907 10469 ft 295 kts 127°
2026-05-07 15:01 48.96387 9.23367 10343 ft 276 kts 127°
2026-05-07 15:01 48.95300 9.25696 10040 ft 266 kts 128°
2026-05-07 15:01 48.94248 9.27990 9535 ft 264 kts 127°
2026-05-07 15:01 48.93207 9.30272 9017 ft 262 kts 127°
2026-05-07 15:02 48.92166 9.32544 8681 ft 260 kts 127°
2026-05-07 15:02 48.91131 9.34789 8383 ft 258 kts 127°
2026-05-07 15:02 48.90103 9.37015 8092 ft 256 kts 127°
2026-05-07 15:02 48.89095 9.39197 8038 ft 256 kts 127°
2026-05-07 15:03 48.88057 9.41446 8037 ft 257 kts 127°
2026-05-07 15:03 48.87043 9.43639 8037 ft 257 kts 127°
2026-05-07 15:03 48.86016 9.45858 7870 ft 256 kts 127°
2026-05-07 15:03 48.84999 9.48062 7606 ft 255 kts 127°
2026-05-07 15:04 48.83985 9.50259 7401 ft 254 kts 127°
2026-05-07 15:04 48.82974 9.52449 7186 ft 253 kts 127°
2026-05-07 15:04 48.81961 9.54627 6934 ft 252 kts 127°
2026-05-07 15:04 48.81206 9.57017 6653 ft 253 kts 102°
2026-05-07 15:05 48.80952 9.59645 6355 ft 252 kts 101°
2026-05-07 15:05 48.80270 9.62046 6012 ft 248 kts 129°
2026-05-07 15:05 48.78999 9.63696 5653 ft 243 kts 156°
2026-05-07 15:05 48.77401 9.64373 5290 ft 238 kts 181°
2026-05-07 15:06 48.75796 9.64005 4914 ft 232 kts 205°
2026-05-07 15:06 48.74453 9.62718 4539 ft 227 kts 228°
2026-05-07 15:06 48.73619 9.60757 4181 ft 221 kts 257°
2026-05-07 15:06 48.73495 9.58460 4014 ft 221 kts 272°
2026-05-07 15:07 48.73543 9.56152 4009 ft 213 kts 274°
2026-05-07 15:07 48.73599 9.53985 4006 ft 200 kts 274°
2026-05-07 15:07 48.73657 9.51952 4024 ft 185 kts 274°
2026-05-07 15:07 48.73715 9.50055 4018 ft 177 kts 274°
2026-05-07 15:08 48.73747 9.48254 4009 ft 171 kts 268°
2026-05-07 15:08 48.73517 9.46467 4010 ft 173 kts 259°
2026-05-07 15:08 48.73208 9.44693 3897 ft 175 kts 256°
2026-05-07 15:08 48.72883 9.42920 3707 ft 173 kts 258°
2026-05-07 15:09 48.72558 9.41173 3494 ft 173 kts 257°
2026-05-07 15:09 48.72232 9.39431 3262 ft 172 kts 258°
2026-05-07 15:09 48.71906 9.37688 3032 ft 173 kts 258°
2026-05-07 15:09 48.71577 9.35936 2791 ft 173 kts 257°
2026-05-07 15:10 48.71252 9.34206 2580 ft 167 kts 258°
2026-05-07 15:10 48.70946 9.32587 2366 ft 154 kts 256°
2026-05-07 15:10 48.70664 9.31088 2133 ft 144 kts 258°
2026-05-07 15:10 48.70391 9.29657 1913 ft 141 kts 258°
2026-05-07 15:11 48.70122 9.28227 1714 ft 143 kts 257°
2026-05-07 15:11 48.69852 9.26781 1522 ft 143 kts 258°
2026-05-07 15:11 48.69580 9.25333 1373 ft 142 kts 256°
2026-05-07 15:11 48.69306 9.23921 1209 ft 137 kts 256°
2026-05-07 15:12 48.69091 9.22744 1222 ft 91 kts 254°
2026-05-07 15:12 48.68970 9.22093 1243 ft 38 kts 254°
2026-05-07 15:12 48.68941 9.21781 1246 ft 21 kts 277°
2026-05-07 15:12 48.68969 9.21573 1261 ft 19 kts 284°
2026-05-07 15:13 48.68991 9.21447 1266 ft 0 kts 284°
2026-05-07 15:13 48.68991 9.21446 1266 ft 0 kts 284°
2026-05-07 15:13 48.68998 9.21401 1264 ft 4 kts 284°
2026-05-07 15:14 48.69000 9.21340 1260 ft 9 kts 261°
2026-05-07 15:14 48.68987 9.21263 1268 ft 5 kts 255°
2026-05-07 15:14 48.68980 9.21226 1263 ft 4 kts 253°
2026-05-07 15:14 48.68957 9.21109 1268 ft 14 kts 253°
2026-05-07 15:15 48.68931 9.20971 1275 ft 13 kts 254°
2026-05-07 15:15 48.68907 9.20847 1272 ft 11 kts 256°
2026-05-07 15:15 48.68902 9.20819 1273 ft 0 kts 255°
2026-05-07 15:16 48.68895 9.20777 1273 ft 4 kts 254°
2026-05-07 15:16 48.68882 9.20709 1275 ft 10 kts 254°
2026-05-07 15:16 48.68867 9.20632 1277 ft 6 kts 254°
2026-05-07 15:16 48.68845 9.20518 1282 ft 15 kts 253°
2026-05-07 15:17 48.68813 9.20352 1285 ft 17 kts 253°
2026-05-07 15:17 48.68780 9.20182 1287 ft 17 kts 254°
2026-05-07 15:17 48.68758 9.20013 1291 ft 16 kts 275°
2026-05-07 15:17 48.68759 9.19855 1297 ft 15 kts 257°
2026-05-07 15:18 48.68730 9.19704 1300 ft 15 kts 253°
2026-05-07 15:18 48.68700 9.19543 1305 ft 16 kts 254°
2026-05-07 15:18 48.68671 9.19392 1309 ft 14 kts 254°
2026-05-07 15:18 48.68644 9.19253 1313 ft 14 kts 254°
2026-05-07 15:19 48.68689 9.19155 1317 ft 12 kts 345°
2026-05-07 15:19 48.68766 9.19173 1317 ft 13 kts 54°
2026-05-07 15:19 48.68788 9.19284 1315 ft 6 kts 75°
2026-05-07 15:19 48.68807 9.19314 1315 ft 4 kts 354°
2026-05-07 15:20 48.68846 9.19298 1315 ft 6 kts 344°
2026-05-07 15:20 48.68870 9.19288 1315 ft 0 kts 344°